AC2JK-WX Weather Reports


time (UTC)temp
C
wind
direction
speed
KPH
gust
KPH
rain 1hr
cm
rain 24hr
cm
rain mn
cm
humidity
%
barometer
mb
20260507145210 11 245 3.2 3.2 0.00 0.00 0.00 56 1013.0
20260507144710 11 245 3.2 6.4 0.00 0.00 0.00 56 1013.0
20260507143709 11 245 3.2 4.8 0.00 0.00 0.00 55 1013.0
20260507143210 11 245 3.2 6.4 0.00 0.00 0.00 57 1013.0
20260507142710 11 245 3.2 6.4 0.00 0.00 0.00 56 1013.0
20260507142210 11 245 3.2 3.2 0.00 0.00 0.00 57 1013.0
20260507141709 10 245 4.8 4.8 0.00 0.00 0.00 59 1013.0
20260507141211 10 245 0.0 4.8 0.00 0.00 0.00 60 1013.0
20260507140710 10 245 0.0 4.8 0.00 0.00 0.00 63 1013.0
20260507140209 10 245 3.2 4.8 0.00 0.00 0.00 62 1013.0
20260507135709 10 245 0.0 0.0 0.00 0.00 0.00 61 1013.0
20260507135209 10 245 4.8 4.8 0.00 0.00 0.00 62 1013.0
20260507134710 9 245 0.0 1.6 0.00 0.00 0.00 67 1013.0
20260507134216 9 245 1.6 4.8 0.00 0.00 0.00 67 1013.0
20260507133710 8 245 0.0 1.6 0.00 0.00 0.00 71 1013.0
20260507133209 8 245 1.6 1.6 0.00 0.00 0.00 69 1013.0
20260507132710 8 245 0.0 1.6 0.00 0.00 0.00 71 1013.0
20260507132209 8 245 1.6 3.2 0.00 0.00 0.00 70 1013.0
20260507131709 7 245 0.0 1.6 0.00 0.00 0.00 68 1013.0
20260507131209 7 245 0.0 1.6 0.00 0.00 0.00 69 1013.0
20260507130712 7 245 3.2 4.8 0.00 0.00 0.00 69 1013.0
20260507130209 7 245 0.0 1.6 0.00 0.00 0.00 71 1013.0
20260507125710 6 245 0.0 1.6 0.00 0.00 0.00 69 1013.0
20260507125209 6 245 0.0 4.8 0.00 0.00 0.00 71 1013.0
20260507124710 6 245 0.0 1.6 0.00 0.00 0.00 71 1013.0
20260507124209 6 245 0.0 1.6 0.00 0.00 0.00 71 1013.0
20260507123709 6 245 0.0 1.6 0.00 0.00 0.00 72 1013.0
20260507123210 6 245 0.0 1.6 0.00 0.00 0.00 72 1013.0
20260507122709 6 245 1.6 1.6 0.00 0.00 0.00 75 1013.0
20260507122209 6 245 0.0 1.6 0.00 0.00 0.00 75 1013.0
20260507121713 5 245 0.0 0.0 0.00 0.00 0.00 79 1013.0
20260507121210 5 245 0.0 1.6 0.00 0.00 0.00 87 1013.0
20260507120710 5 245 1.6 1.6 0.00 0.00 0.00 94 1013.0
20260507120214 5 245 0.0 0.0 0.00 0.00 0.00 96 1013.0
20260507115709 5 245 0.0 0.0 0.00 0.00 0.00 97 1013.0
20260507115209 5 245 0.0 0.0 0.00 0.00 0.00 98 1014.0
20260507114709 5 245 0.0 0.0 0.00 0.00 0.00 98 1014.0
20260507114209 5 245 0.0 0.0 0.00 0.00 0.00 98 1014.0
20260507113710 5 245 0.0 3.2 0.00 0.00 0.00 98 1014.0
20260507113209 5 245 0.0 1.6 0.00 0.00 0.00 98 1014.0
20260507112710 5 245 0.0 4.8 0.00 0.00 0.00 98 1014.0
20260507112210 5 245 1.6 3.2 0.00 0.00 0.00 98 1014.0
20260507111710 5 245 0.0 3.2 0.00 0.00 0.00 99 1014.0
20260507111210 5 245 0.0 0.0 0.00 0.00 0.00 99 1014.0
20260507110710 5 245 0.0 0.0 0.00 0.00 0.00 99 1013.0
20260507110209 5 245 0.0 0.0 0.00 0.00 0.00 99 1013.0
20260507105710 4 245 0.0 0.0 0.00 0.00 0.00 99 1013.0
20260507105210 4 245 0.0 0.0 0.00 0.00 0.00 98 1013.0
20260507104709 4 245 0.0 0.0 0.00 0.00 0.00 99 1013.0
20260507104209 4 245 0.0 0.0 0.00 0.00 0.00 98 1013.0
20260507103710 4 245 0.0 0.0 0.00 0.00 0.00 98 1013.0
20260507103211 4 245 0.0 0.0 0.00 0.00 0.00 98 1013.0
20260507102710 4 245 0.0 0.0 0.00 0.00 0.00 98 1013.0
20260507102210 4 245 0.0 0.0 0.00 0.00 0.00 98 1013.0
20260507101710 4 245 0.0 0.0 0.00 0.00 0.00 98 1013.0
20260507101210 4 245 0.0 0.0 0.00 0.00 0.00 99 1013.0
20260507100709 4 245 0.0 0.0 0.00 0.00 0.00 99 1013.0
20260507100210 3 245 0.0 1.6 0.00 0.00 0.00 98 1013.0
20260507095709 3 245 0.0 0.0 0.00 0.00 0.00 98 1013.0
20260507095209 3 245 0.0 0.0 0.00 0.00 0.00 98 1013.0
20260507094710 3 245 0.0 0.0 0.00 0.00 0.00 98 1013.0
20260507094210 3 245 0.0 0.0 0.00 0.00 0.00 98 1013.0
20260507093709 3 245 0.0 0.0 0.00 0.00 0.00 98 1013.0
20260507093210 3 245 0.0 0.0 0.00 0.00 0.00 98 1013.0
20260507092710 3 245 0.0 0.0 0.00 0.00 0.00 98 1013.0
20260507092210 3 245 0.0 0.0 0.00 0.00 0.00 98 1013.0
20260507091709 3 245 0.0 0.0 0.00 0.00 0.00 98 1013.0
20260507091210 3 245 0.0 0.0 0.00 0.00 0.00 98 1013.0
20260507090709 3 245 0.0 0.0 0.00 0.00 0.00 98 1013.0
20260507090209 3 245 0.0 0.0 0.00 0.00 0.00 98 1013.0
20260507085709 3 245 0.0 0.0 0.00 0.00 0.00 97 1013.0
20260507085209 3 245 0.0 0.0 0.00 0.00 0.00 97 1013.0
20260507084709 3 245 0.0 0.0 0.00 0.00 0.00 97 1013.0
20260507084210 3 245 0.0 0.0 0.00 0.00 0.00 97 1013.0
20260507083710 3 245 0.0 0.0 0.00 0.00 0.00 97 1013.0
20260507083210 3 245 0.0 0.0 0.00 0.00 0.00 97 1013.0
20260507082709 3 245 0.0 0.0 0.00 0.00 0.00 97 1013.0
20260507082210 3 245 0.0 0.0 0.00 0.00 0.00 97 1013.0
20260507081711 3 245 0.0 0.0 0.00 0.00 0.00 97 1013.0
20260507081212 3 245 0.0 0.0 0.00 0.00 0.00 97 1013.0
20260507080709 3 245 0.0 0.0 0.00 0.00 0.00 97 1013.0
20260507080209 3 245 0.0 0.0 0.00 0.00 0.00 96 1013.0
20260507075710 3 245 0.0 0.0 0.00 0.00 0.00 96 1013.0
20260507075209 3 245 0.0 0.0 0.00 0.00 0.00 96 1013.0
20260507074709 4 245 0.0 0.0 0.00 0.00 0.00 96 1013.0
20260507074210 4 245 0.0 0.0 0.00 0.00 0.00 96 1013.0
20260507073711 4 245 0.0 0.0 0.00 0.00 0.00 96 1013.0
20260507073211 4 245 0.0 0.0 0.00 0.00 0.00 96 1013.0
20260507072709 4 245 0.0 0.0 0.00 0.00 0.00 96 1013.0
20260507072209 4 245 0.0 0.0 0.00 0.00 0.00 95 1013.0
20260507071709 4 245 0.0 0.0 0.00 0.00 0.00 95 1013.0
20260507071209 4 245 0.0 0.0 0.00 0.00 0.00 95 1013.0
20260507070709 4 245 0.0 0.0 0.00 0.00 0.00 95 1013.0
20260507070210 4 245 0.0 0.0 0.00 0.00 0.00 95 1013.0
20260507065709 5 245 0.0 0.0 0.00 0.00 0.00 95 1013.0
20260507065209 5 245 0.0 0.0 0.00 0.00 0.00 95 1013.0
20260507064711 5 245 0.0 0.0 0.00 0.00 0.00 95 1013.0
20260507064209 5 245 0.0 0.0 0.00 0.00 0.00 95 1013.0
20260507063714 5 245 0.0 0.0 0.00 0.00 0.00 94 1013.0
20260507063210 5 245 0.0 0.0 0.00 0.00 0.00 94 1013.0
20260507062709 5 245 0.0 0.0 0.00 0.00 0.00 94 1013.0
20260507062212 5 245 0.0 0.0 0.00 0.00 0.00 94 1013.0
20260507061709 6 245 0.0 0.0 0.00 0.00 0.00 94 1013.0
20260507061209 6 245 0.0 0.0 0.00 0.00 0.00 94 1013.0
20260507060710 6 245 0.0 0.0 0.00 0.00 0.00 94 1013.0
20260507060209 6 245 0.0 0.0 0.00 0.00 0.00 94 1013.0
20260507055710 6 245 0.0 0.0 0.00 0.00 0.00 93 1013.0
20260507055209 6 245 0.0 0.0 0.00 0.00 0.00 93 1013.0
20260507054709 6 245 0.0 0.0 0.00 0.00 0.00 93 1013.0
20260507054210 6 245 0.0 0.0 0.00 0.00 0.00 92 1013.0
20260507053709 6 245 0.0 0.0 0.00 0.00 0.00 92 1013.0
20260507053210 6 245 0.0 0.0 0.00 0.00 0.00 92 1013.0
20260507052709 6 245 0.0 0.0 0.00 0.00 0.00 92 1013.0
20260507052209 6 245 0.0 0.0 0.00 0.00 0.00 91 1013.0
20260507051710 6 245 0.0 0.0 0.00 0.00 0.00 91 1013.0
20260507051210 6 245 0.0 0.0 0.00 0.00 0.00 91 1013.0
20260507050710 6 245 0.0 0.0 0.00 0.00 0.00 91 1013.0
20260507050209 6 245 0.0 0.0 0.00 0.00 0.00 91 1013.0
20260507045710 6 245 0.0 0.0 0.00 0.00 0.00 91 1014.0
20260507045209 6 245 0.0 1.6 0.00 0.00 0.00 91 1014.0
20260507044710 6 245 0.0 0.0 0.00 0.00 0.00 91 1014.0
20260507044210 6 245 1.6 1.6 0.00 0.00 0.00 91 1014.0
20260507043710 6 245 0.0 1.6 0.00 0.00 0.00 91 1014.0
20260507043209 6 245 0.0 1.6 0.00 0.00 0.00 91 1014.0
20260507042711 6 245 0.0 3.2 0.00 0.00 0.00 91 1014.0
20260507042209 6 245 1.6 1.6 0.00 0.00 0.00 91 1014.0
20260507041710 6 245 0.0 0.0 0.00 0.00 0.00 91 1014.0
20260507041209 6 245 0.0 0.0 0.00 0.00 0.00 91 1014.0
20260507040709 6 245 0.0 0.0 0.00 0.00 0.00 91 1014.0
20260507040209 6 245 0.0 0.0 0.00 0.00 0.00 91 1013.0
20260507035709 6 245 1.6 1.6 0.00 0.00 1.12 91 1014.0
20260507035210 6 245 1.6 3.2 0.00 0.00 1.12 91 1013.0
20260507034709 6 245 1.6 3.2 0.00 0.00 1.12 91 1014.0
20260507034209 6 245 1.6 1.6 0.00 0.00 1.12 91 1013.0
20260507033711 6 245 1.6 1.6 0.00 0.00 1.12 91 1013.0
20260507033209 6 245 1.6 1.6 0.00 0.00 1.12 90 1013.0
20260507032709 6 245 0.0 1.6 0.00 0.00 1.12 90 1013.0
20260507032210 6 245 0.0 1.6 0.00 0.00 1.12 90 1013.0
20260507031711 6 245 0.0 3.2 0.00 0.00 1.12 90 1013.0
20260507030732 6 245 0.0 3.2 0.00 0.00 1.12 90 1014.0
20260507030211 6 245 3.2 3.2 0.00 0.00 1.12 90 1014.0
20260507025709 6 245 0.0 1.6 0.00 0.00 1.12 89 1014.0
20260507025209 6 245 0.0 0.0 0.00 0.00 1.12 89 1014.0
20260507024710 6 245 0.0 1.6 0.00 0.00 1.12 89 1013.0
20260507023723 6 245 0.0 1.6 0.00 0.00 1.12 89 1013.0
20260507023210 6 245 0.0 1.6 0.00 0.00 1.12 89 1013.0
20260507022710 6 245 0.0 1.6 0.00 0.00 1.12 89 1013.0
20260507022209 6 245 0.0 1.6 0.00 0.00 1.12 89 1013.0
20260507021710 6 245 1.6 1.6 0.00 0.00 1.12 89 1013.0
20260507021210 6 245 1.6 3.2 0.00 0.00 1.12 89 1014.0
20260507020709 6 245 0.0 1.6 0.00 0.00 1.12 89 1014.0
20260507020210 6 245 1.6 1.6 0.00 0.00 1.12 89 1014.0
20260507015709 6 245 1.6 1.6 0.00 0.00 1.12 89 1014.0
20260507015210 6 245 1.6 1.6 0.00 0.00 1.12 89 1014.0
20260507014710 6 245 0.0 0.0 0.00 0.00 1.12 90 1014.0
20260507014209 6 245 0.0 0.0 0.00 0.00 1.12 90 1014.0
20260507013710 6 245 0.0 0.0 0.00 0.00 1.12 90 1014.0
20260507013209 6 245 0.0 0.0 0.00 0.00 1.12 90 1014.0
20260507012710 6 245 0.0 0.0 0.00 0.00 1.12 90 1014.0
20260507012209 7 245 0.0 0.0 0.00 0.00 1.12 91 1014.0
20260507011709 7 245 0.0 0.0 0.00 0.00 1.12 90 1014.0
20260507011210 7 245 0.0 0.0 0.00 0.00 1.12 91 1013.0
20260507010710 7 245 0.0 0.0 0.00 0.00 1.12 90 1013.0
20260507010209 7 245 0.0 0.0 0.00 0.00 1.12 90 1013.0
20260507005710 7 245 0.0 0.0 0.00 0.00 1.12 90 1013.0
20260507005210 7 245 0.0 0.0 0.00 0.00 1.12 90 1013.0
20260507004710 7 245 0.0 0.0 0.00 0.00 1.12 90 1013.0
20260507004209 7 245 0.0 0.0 0.00 0.00 1.12 90 1013.0
20260507003711 7 245 0.0 0.0 0.00 0.00 1.12 89 1013.0
20260507003210 7 245 0.0 0.0 0.00 0.00 1.12 89 1013.0
20260507002709 7 245 0.0 0.0 0.00 0.00 1.12 89 1013.0
20260507002209 7 245 0.0 0.0 0.00 0.00 1.12 89 1013.0
20260507001710 7 245 0.0 0.0 0.00 0.00 1.12 89 1013.0
20260507001210 7 245 0.0 0.0 0.00 0.00 1.12 89 1013.0
20260507000709 7 245 0.0 0.0 0.00 0.00 1.12 90 1013.0
20260507000212 7 245 0.0 0.0 0.00 0.00 1.12 88 1013.0
20260506235709 7 245 0.0 0.0 0.00 0.00 1.12 88 1013.0
20260506235210 7 245 0.0 0.0 0.00 0.00 1.12 87 1013.0
20260506234709 7 245 0.0 0.0 0.00 0.00 1.12 88 1013.0
20260506234209 7 245 0.0 3.2 0.00 0.00 1.12 87 1013.0
20260506233710 7 245 0.0 3.2 0.00 0.00 1.12 87 1013.0
20260506233209 7 245 0.0 1.6 0.00 0.00 1.12 88 1013.0
20260506232300 7 245 0.0 1.6 0.00 0.00 1.12 88 1013.0
20260506231709 7 245 1.6 4.8 0.00 0.00 1.12 88 1013.0
20260506231209 7 245 3.2 3.2 0.00 0.00 1.12 88 1013.0
20260506230710 7 245 0.0 1.6 0.00 0.00 1.12 88 1013.0
20260506230209 7 245 1.6 1.6 0.00 0.00 1.12 88 1013.0
20260506225710 7 245 3.2 3.2 0.00 0.00 1.12 88 1013.0
20260506225209 7 245 3.2 3.2 0.00 0.00 1.12 89 1012.0
20260506224710 7 245 3.2 6.4 0.00 0.00 1.12 89 1012.0
20260506224209 7 245 3.2 3.2 0.00 0.00 1.12 90 1012.0
20260506223709 7 245 3.2 6.4 0.00 0.00 1.12 90 1012.0
20260506223209 7 245 0.0 3.2 0.00 0.00 1.12 91 1012.0
20260506222709 7 245 1.6 4.8 0.00 0.00 1.12 91 1012.0
20260506222210 7 245 4.8 6.4 0.00 0.00 1.12 91 1012.0
20260506221709 6 245 1.6 8.0 0.00 0.00 1.12 91 1012.0
20260506221210 6 245 4.8 9.7 0.00 0.00 1.12 91 1012.0
20260506220710 6 245 9.7 9.7 0.00 0.00 1.12 92 1012.0
20260506220210 7 245 6.4 6.4 0.00 0.00 1.12 92 1012.0
20260506215709 6 245 4.8 8.0 0.00 0.00 1.12 92 1012.0
20260506215210 6 245 3.2 9.7 0.00 0.00 1.12 93 1012.0
20260506214710 6 245 6.4 9.7 0.00 0.00 1.12 94 1012.0
20260506214210 6 245 4.8 6.4 0.00 0.00 1.12 94 1012.0
20260506213709 6 245 0.0 4.8 0.00 0.00 1.12 94 1012.0
20260506213210 6 245 3.2 9.7 0.00 0.00 1.12 94 1012.0
20260506212709 6 245 3.2 11.3 0.00 0.00 1.12 94 1012.0
20260506212210 6 245 6.4 14.5 0.00 0.00 1.12 93 1012.0
20260506211709 6 245 3.2 17.7 0.00 0.00 1.12 93 1011.0
20260506211209 6 245 8.0 16.1 0.00 0.00 1.12 93 1011.0
20260506210709 6 245 4.8 14.5 0.00 0.00 1.12 93 1011.0
20260506210209 7 245 11.3 11.3 0.00 0.00 1.12 93 1011.0
20260506205710 7 245 3.2 6.4 0.00 0.00 1.12 91 1011.0
20260506205209 7 245 9.7 9.7 0.00 0.00 1.12 91 1011.0
20260506204709 7 245 11.3 12.9 0.00 0.00 1.12 89 1011.0
20260506204209 8 245 9.7 14.5 0.00 0.00 1.12 88 1011.0
20260506203710 8 245 4.8 8.0 0.00 0.00 1.12 87 1011.0
20260506203210 9 245 3.2 3.2 0.00 0.00 1.12 84 1011.0
20260506202709 10 245 11.3 11.3 0.00 0.00 1.12 79 1011.0
20260506202209 11 245 3.2 4.8 0.00 0.00 1.12 78 1011.0
20260506201709 11 245 3.2 12.9 0.00 0.00 1.12 77 1010.0
20260506201209 11 245 4.8 9.7 0.00 0.00 1.12 77 1010.0
20260506200710 11 245 8.0 14.5 0.00 0.00 1.12 78 1010.0
20260506200209 11 245 3.2 11.3 0.00 0.00 1.12 77 1010.0
20260506195710 11 245 9.7 17.7 0.00 0.00 1.12 76 1010.0
20260506195209 12 245 6.4 12.9 0.00 0.00 1.12 75 1010.0
20260506194709 12 245 6.4 11.3 0.00 0.00 1.12 74 1010.0
20260506194209 12 245 3.2 3.2 0.00 0.00 1.12 77 1010.0
20260506193711 12 245 3.2 3.2 0.00 0.00 1.12 75 1010.0
20260506193209 11 245 3.2 3.2 0.00 0.00 1.12 77 1010.0
20260506192713 11 245 1.6 4.8 0.00 0.00 1.12 79 1010.0
20260506192211 11 245 6.4 9.7 0.00 0.00 1.12 81 1010.0
20260506191715 10 245 0.0 3.2 0.00 0.00 1.12 83 1010.0
20260506191210 10 245 1.6 4.8 0.00 0.00 1.12 83 1010.0
20260506190712 10 245 1.6 3.2 0.00 0.00 1.12 84 1010.0
20260506190209 10 245 1.6 3.2 0.00 0.00 1.12 83 1010.0
20260506185710 10 245 3.2 4.8 0.00 0.00 1.12 82 1010.0
20260506184747 11 245 3.2 3.2 0.00 0.00 1.12 78 1010.0
20260506184210 11 245 0.0 3.2 0.00 0.00 1.12 77 1010.0
20260506183710 11 245 0.0 3.2 0.00 0.00 1.12 75 1010.0
20260506183210 12 245 0.0 3.2 0.00 0.00 1.12 76 1010.0
20260506182709 12 245 1.6 4.8 0.00 0.00 1.12 78 1010.0
20260506182210 11 245 0.0 3.2 0.00 0.00 1.12 81 1010.0
20260506181709 11 245 0.0 1.6 0.00 0.00 1.12 82 1010.0
20260506181209 11 245 1.6 1.6 0.00 0.00 1.12 83 1010.0
20260506180709 10 245 0.0 0.0 0.00 0.00 1.12 82 1010.0
20260506180210 10 245 0.0 0.0 0.00 0.00 1.12 81 1010.0
20260506175710 11 245 0.0 0.0 0.00 0.00 1.12 80 1010.0
20260506175209 11 245 0.0 0.0 0.00 0.00 1.12 82 1010.0
20260506174709 11 245 0.0 1.6 0.00 0.00 1.12 81 1010.0
20260506174211 11 245 0.0 0.0 0.00 0.00 1.12 79 1010.0
20260506173710 11 245 3.2 4.8 0.00 0.00 1.12 80 1010.0
20260506173210 11 245 0.0 0.0 0.00 0.00 1.12 80 1010.0
20260506172709 11 245 0.0 3.2 0.00 0.00 1.12 79 1010.0
20260506172209 11 245 0.0 3.2 0.00 0.00 1.12 81 1010.0
20260506171710 11 245 0.0 3.2 0.00 0.00 1.12 81 1010.0
20260506171209 11 245 1.6 1.6 0.00 0.00 1.12 81 1010.0
20260506170709 11 245 0.0 3.2 0.00 0.00 1.12 82 1010.0
20260506170210 11 245 0.0 3.2 0.00 0.00 1.12 83 1010.0
20260506165710 11 245 0.0 3.2 0.00 0.00 1.12 84 1010.0
20260506165210 10 245 1.6 1.6 0.00 0.00 1.12 83 1010.0
20260506164709 10 245 1.6 1.6 0.00 0.00 1.12 83 1010.0
20260506164209 10 245 1.6 1.6 0.00 0.00 1.12 82 1010.0
20260506163710 10 245 1.6 1.6 0.00 0.00 1.12 83 1010.0
20260506163211 11 245 1.6 4.8 0.00 0.00 1.12 85 1010.0
20260506162709 10 245 0.0 1.6 0.00 0.00 1.12 87 1010.0
20260506162211 10 245 0.0 0.0 0.00 0.00 1.12 87 1010.0
20260506161710 10 245 1.6 1.6 0.00 0.00 1.12 87 1010.0
20260506161210 10 245 1.6 3.2 0.00 0.00 1.12 88 1010.0
20260506160709 10 245 0.0 1.6 0.00 0.00 1.12 89 1010.0
20260506160210 10 245 0.0 4.8 0.00 0.00 1.12 88 1010.0
20260506155709 10 245 1.6 1.6 0.00 0.00 1.12 90 1010.0
20260506155210 10 245 0.0 3.2 0.00 0.00 1.12 90 1010.0
20260506154709 10 245 0.0 1.6 0.00 0.00 1.12 90 1010.0
20260506154209 10 245 3.2 3.2 0.00 0.00 1.12 91 1010.0
20260506153709 9 245 1.6 1.6 0.00 0.00 1.12 91 1010.0
20260506153210 9 245 1.6 3.2 0.00 0.00 1.12 91 1010.0
20260506152709 9 245 3.2 3.2 0.00 0.00 1.12 92 1010.0
20260506152210 9 245 0.0 0.0 0.00 0.00 1.12 93 1010.0
20260506151710 9 245 0.0 0.0 0.00 0.00 1.12 93 1010.0
20260506151209 9 245 0.0 0.0 0.00 0.00 1.12 94 1010.0
20260506150711 9 245 0.0 0.0 0.03 0.00 1.12 95 1010.0
20260506150210 9 245 0.0 1.6 0.03 0.00 1.12 95 1010.0
20260506145709 9 245 0.0 1.6 0.03 0.00 1.12 95 1010.0